Torna al catalogo

STARLINK-31992

AttivoComunicazioniVLEO
NORAD 60023·PAYLOAD·🇺🇸 United States

Lanciato Jun 8, 2024 da Cape Canaveral Space Force Station

Loading…

Prossimi Passaggi (prossime 24 ore)

TLE

AggiornatoSource: CelesTrak SupGP

Epoca: Sep 14, 2026, 14:56 UTC

1 60023C 24111H   26257.62270833  .00000725  00000+0  21443-4 0  2571
2 60023  53.1568 276.8644 0001461  89.7031  24.5728 15.34364636    18

Traccia STARLINK-31992 in tempo reale con AllMySat

Download on the App Store